Year,Month,Day,Hour,Minute,Value (Times are PST for temperature in C)
2019,05,28,00,00,17.70
2019,05,28,00,01,17.70
2019,05,28,00,02,17.80
2019,05,28,00,03,17.80
2019,05,28,00,04,17.90
2019,05,28,00,05,17.90
2019,05,28,00,06,18.00
2019,05,28,00,07,18.00
2019,05,28,00,08,18.10
2019,05,28,00,09,18.10
2019,05,28,00,10,18.20
2019,05,28,00,11,18.20
2019,05,28,00,12,18.20
2019,05,28,00,13,18.20
2019,05,28,00,14,18.30
2019,05,28,00,15,18.30
2019,05,28,00,16,18.30
2019,05,28,00,17,18.30
2019,05,28,00,18,18.30
2019,05,28,00,19,18.30
2019,05,28,00,20,18.20
2019,05,28,00,21,18.20
2019,05,28,00,22,18.20
2019,05,28,00,23,18.20
2019,05,28,00,24,18.20
2019,05,28,00,25,18.20
2019,05,28,00,26,18.20
2019,05,28,00,27,18.20
2019,05,28,00,28,18.20
2019,05,28,00,29,18.20
2019,05,28,00,30,18.10
2019,05,28,00,31,18.10
2019,05,28,00,32,18.10
2019,05,28,00,33,18.10
2019,05,28,00,34,18.10
2019,05,28,00,35,18.10
2019,05,28,00,36,18.10
2019,05,28,00,37,18.10
2019,05,28,00,38,18.10
2019,05,28,00,39,18.00
2019,05,28,00,40,18.00
2019,05,28,00,41,18.00
2019,05,28,00,42,18.00
2019,05,28,00,43,17.90
2019,05,28,00,44,17.90
2019,05,28,00,45,17.90
2019,05,28,00,46,17.90
2019,05,28,00,47,17.90
2019,05,28,00,48,17.80
2019,05,28,00,49,17.80
2019,05,28,00,50,17.80
2019,05,28,00,51,17.80
2019,05,28,00,52,17.70
2019,05,28,00,53,17.70
2019,05,28,00,54,17.70
2019,05,28,00,55,17.70
2019,05,28,00,56,17.70
2019,05,28,00,57,17.60
2019,05,28,00,58,17.60
2019,05,28,00,59,17.60
2019,05,28,01,00,17.60
2019,05,28,01,01,17.50
2019,05,28,01,02,17.50
2019,05,28,01,03,17.50
2019,05,28,01,04,17.40
2019,05,28,01,05,17.40
2019,05,28,01,06,17.40
2019,05,28,01,07,17.30
2019,05,28,01,08,17.30
2019,05,28,01,09,17.30
2019,05,28,01,10,17.30
2019,05,28,01,11,17.20
2019,05,28,01,12,17.10
2019,05,28,01,13,17.10
2019,05,28,01,14,17.10
2019,05,28,01,15,17.00
2019,05,28,01,16,16.90
2019,05,28,01,17,16.90
2019,05,28,01,18,16.90
2019,05,28,01,19,16.80
2019,05,28,01,20,16.80
2019,05,28,01,21,16.70
2019,05,28,01,22,16.70
2019,05,28,01,23,16.60
2019,05,28,01,24,16.60
2019,05,28,01,25,16.60
2019,05,28,01,26,16.50
2019,05,28,01,27,16.50
2019,05,28,01,28,16.40
2019,05,28,01,29,16.40
2019,05,28,01,30,16.30
2019,05,28,01,31,16.30
2019,05,28,01,32,16.20
2019,05,28,01,33,16.10
2019,05,28,01,34,16.00
2019,05,28,01,35,15.90
2019,05,28,01,36,15.80
2019,05,28,01,37,15.70
2019,05,28,01,38,15.60
2019,05,28,01,39,15.60
2019,05,28,01,40,15.60
2019,05,28,01,41,15.50
2019,05,28,01,42,15.50
2019,05,28,01,43,15.50
2019,05,28,01,44,15.40
2019,05,28,01,45,15.40
2019,05,28,01,46,15.40
2019,05,28,01,47,15.40
2019,05,28,01,48,15.40
2019,05,28,01,49,15.40
2019,05,28,01,50,15.40
2019,05,28,01,51,15.40
2019,05,28,01,52,15.40
2019,05,28,01,53,15.40
2019,05,28,01,54,15.40
2019,05,28,01,55,15.40
2019,05,28,01,56,15.40
2019,05,28,01,57,15.40
2019,05,28,01,58,15.30
2019,05,28,01,59,15.30
2019,05,28,02,00,15.30
2019,05,28,02,01,15.20
2019,05,28,02,02,15.20
2019,05,28,02,03,15.10
2019,05,28,02,04,15.00
2019,05,28,02,05,14.90
2019,05,28,02,06,14.80
2019,05,28,02,07,14.70
2019,05,28,02,08,14.60
2019,05,28,02,09,14.50
2019,05,28,02,10,14.40
2019,05,28,02,11,14.30
2019,05,28,02,12,14.20
2019,05,28,02,13,14.20
2019,05,28,02,14,14.10
2019,05,28,02,15,14.00
2019,05,28,02,16,14.00
2019,05,28,02,17,14.00
2019,05,28,02,18,14.00
2019,05,28,02,19,14.00
2019,05,28,02,20,14.00
2019,05,28,02,21,14.10
2019,05,28,02,22,14.10
2019,05,28,02,23,14.10
2019,05,28,02,24,14.20
2019,05,28,02,25,14.20
2019,05,28,02,26,14.20
2019,05,28,02,27,14.20
2019,05,28,02,28,14.30
2019,05,28,02,29,14.30
2019,05,28,02,30,14.30
2019,05,28,02,31,14.30
2019,05,28,02,32,14.30
2019,05,28,02,33,14.30
2019,05,28,02,34,14.30
2019,05,28,02,35,14.30
2019,05,28,02,36,14.20
2019,05,28,02,37,14.10
2019,05,28,02,38,14.00
2019,05,28,02,39,13.90
2019,05,28,02,40,13.80
2019,05,28,02,41,13.70
2019,05,28,02,42,13.60
2019,05,28,02,43,13.60
2019,05,28,02,44,13.50
2019,05,28,02,45,13.40
2019,05,28,02,46,13.30
2019,05,28,02,47,13.20
2019,05,28,02,48,13.20
2019,05,28,02,49,13.10
2019,05,28,02,50,13.00
2019,05,28,02,51,13.00
2019,05,28,02,52,12.90
2019,05,28,02,53,12.90
2019,05,28,02,54,12.80
2019,05,28,02,55,12.80
2019,05,28,02,56,12.80
2019,05,28,02,57,12.80
2019,05,28,02,58,12.80
2019,05,28,02,59,12.70
2019,05,28,03,00,12.70
2019,05,28,03,01,12.70
2019,05,28,03,02,12.70
2019,05,28,03,03,12.70
2019,05,28,03,04,12.70
2019,05,28,03,05,12.70
2019,05,28,03,06,12.60
2019,05,28,03,07,12.60
2019,05,28,03,08,12.60
2019,05,28,03,09,12.60
2019,05,28,03,10,12.60
2019,05,28,03,11,12.60
2019,05,28,03,12,12.60
2019,05,28,03,13,12.60
2019,05,28,03,14,12.60
2019,05,28,03,15,12.60
2019,05,28,03,16,12.60
2019,05,28,03,17,12.60
2019,05,28,03,18,12.70
2019,05,28,03,19,12.70
2019,05,28,03,20,12.70
2019,05,28,03,21,12.70
2019,05,28,03,22,12.70
2019,05,28,03,23,12.70
2019,05,28,03,24,12.70
2019,05,28,03,25,12.70
2019,05,28,03,26,12.70
2019,05,28,03,27,12.80
2019,05,28,03,28,12.80
2019,05,28,03,29,12.90
2019,05,28,03,30,12.90
2019,05,28,03,31,12.90
2019,05,28,03,32,12.90
2019,05,28,03,33,12.90
2019,05,28,03,34,13.00
2019,05,28,03,35,13.00
2019,05,28,03,36,13.00
2019,05,28,03,37,13.00
2019,05,28,03,38,13.00
2019,05,28,03,39,13.10
2019,05,28,03,40,13.10
2019,05,28,03,41,13.10
2019,05,28,03,42,13.10
2019,05,28,03,43,13.10
2019,05,28,03,44,13.10
2019,05,28,03,45,13.10
2019,05,28,03,46,13.10
2019,05,28,03,47,13.10
2019,05,28,03,48,13.10
2019,05,28,03,49,13.10
2019,05,28,03,50,13.10
2019,05,28,03,51,13.10
2019,05,28,03,52,13.10
2019,05,28,03,53,13.10
2019,05,28,03,54,13.10
2019,05,28,03,55,13.10
2019,05,28,03,56,13.10
2019,05,28,03,57,13.00
2019,05,28,03,58,13.00
2019,05,28,03,59,13.00
2019,05,28,04,00,13.00
2019,05,28,04,01,12.90
2019,05,28,04,02,12.90
2019,05,28,04,03,12.90
2019,05,28,04,04,12.90
2019,05,28,04,05,12.90
2019,05,28,04,06,12.90
2019,05,28,04,07,12.90
2019,05,28,04,08,12.80
2019,05,28,04,09,12.80
2019,05,28,04,10,12.80
2019,05,28,04,11,12.80
2019,05,28,04,12,12.80
2019,05,28,04,13,12.70
2019,05,28,04,14,12.70
2019,05,28,04,15,12.70
2019,05,28,04,16,12.70
2019,05,28,04,17,12.70
2019,05,28,04,18,12.60
2019,05,28,04,19,12.60
2019,05,28,04,20,12.60
2019,05,28,04,21,12.60
2019,05,28,04,22,12.50
2019,05,28,04,23,12.50
2019,05,28,04,24,12.50
2019,05,28,04,25,12.50
2019,05,28,04,26,12.40
2019,05,28,04,27,12.40
2019,05,28,04,28,12.40
2019,05,28,04,29,12.40
2019,05,28,04,30,12.30
2019,05,28,04,31,12.30
2019,05,28,04,32,12.30
2019,05,28,04,33,12.30
2019,05,28,04,34,12.30
2019,05,28,04,35,12.30
2019,05,28,04,36,12.30
2019,05,28,04,37,12.20
2019,05,28,04,38,12.20
2019,05,28,04,39,12.20
2019,05,28,04,40,12.20
2019,05,28,04,41,12.20
2019,05,28,04,42,12.20
2019,05,28,04,43,12.20
2019,05,28,04,44,12.10
2019,05,28,04,45,12.10
2019,05,28,04,46,12.10
2019,05,28,04,47,12.10
2019,05,28,04,48,12.10
2019,05,28,04,49,12.10
2019,05,28,04,50,12.00
2019,05,28,04,51,12.00
2019,05,28,04,52,12.00
2019,05,28,04,53,12.00
2019,05,28,04,54,12.00
2019,05,28,04,55,11.90
2019,05,28,04,56,11.90
2019,05,28,04,57,11.90
2019,05,28,04,58,11.90
2019,05,28,04,59,11.90
2019,05,28,05,00,11.90
2019,05,28,05,01,11.90
2019,05,28,05,02,11.90
2019,05,28,05,03,11.90
2019,05,28,05,04,11.90
2019,05,28,05,05,11.80
2019,05,28,05,06,11.80
2019,05,28,05,07,11.80
2019,05,28,05,08,11.80
2019,05,28,05,09,11.80
2019,05,28,05,10,11.80
2019,05,28,05,11,11.80
2019,05,28,05,12,11.80
2019,05,28,05,13,11.80
2019,05,28,05,14,11.80
2019,05,28,05,15,11.80
2019,05,28,05,16,11.80
2019,05,28,05,17,11.80
2019,05,28,05,18,11.80
2019,05,28,05,19,11.80
2019,05,28,05,20,11.80
2019,05,28,05,21,11.80
2019,05,28,05,22,11.80
2019,05,28,05,23,11.80
2019,05,28,05,24,11.70
2019,05,28,05,25,11.70
2019,05,28,05,26,11.70
2019,05,28,05,27,11.70
2019,05,28,05,28,11.70
2019,05,28,05,29,11.70
2019,05,28,05,30,11.70
2019,05,28,05,31,11.70
2019,05,28,05,32,11.70
2019,05,28,05,33,11.70
2019,05,28,05,34,11.70
2019,05,28,05,35,11.70
2019,05,28,05,36,11.70
2019,05,28,05,37,11.70
2019,05,28,05,38,11.70
2019,05,28,05,39,11.70
2019,05,28,05,40,11.70
2019,05,28,05,41,11.70
2019,05,28,05,42,11.70
2019,05,28,05,43,11.70
2019,05,28,05,44,11.70
2019,05,28,05,45,11.70
2019,05,28,05,46,11.70
2019,05,28,05,47,11.70
2019,05,28,05,48,11.70
2019,05,28,05,49,11.70
2019,05,28,05,50,11.70
2019,05,28,05,51,11.70
2019,05,28,05,52,11.70
2019,05,28,05,53,11.70
2019,05,28,05,54,11.70
2019,05,28,05,55,11.70
2019,05,28,05,56,11.70
2019,05,28,05,57,11.70
2019,05,28,05,58,11.70
2019,05,28,05,59,11.70
2019,05,28,06,00,11.60
2019,05,28,06,01,11.60
2019,05,28,06,02,11.60
2019,05,28,06,03,11.60
2019,05,28,06,04,11.60
2019,05,28,06,05,11.60
2019,05,28,06,06,11.60
2019,05,28,06,07,11.60
2019,05,28,06,08,11.60
2019,05,28,06,09,11.60
2019,05,28,06,10,11.60
2019,05,28,06,11,11.60
2019,05,28,06,12,11.60
2019,05,28,06,13,11.60
2019,05,28,06,14,11.60
2019,05,28,06,15,11.70
2019,05,28,06,16,11.70
2019,05,28,06,17,11.60
2019,05,28,06,18,11.60
2019,05,28,06,19,11.60
2019,05,28,06,20,11.60
2019,05,28,06,21,11.50
2019,05,28,06,22,11.40
2019,05,28,06,23,11.40
2019,05,28,06,24,11.40
2019,05,28,06,25,11.30
2019,05,28,06,26,11.30
2019,05,28,06,27,11.20
2019,05,28,06,28,11.20
2019,05,28,06,29,11.20
2019,05,28,06,30,11.20
2019,05,28,06,31,11.10
2019,05,28,06,32,11.10
2019,05,28,06,33,11.10
2019,05,28,06,34,11.10
2019,05,28,06,35,11.00
2019,05,28,06,36,11.00
2019,05,28,06,37,11.00
2019,05,28,06,38,11.00
2019,05,28,06,39,11.00
2019,05,28,06,40,11.00
2019,05,28,06,41,11.00
2019,05,28,06,42,11.00
2019,05,28,06,43,11.00
2019,05,28,06,44,11.00
2019,05,28,06,45,11.00
2019,05,28,06,46,11.00
2019,05,28,06,47,11.00
2019,05,28,06,48,10.90
2019,05,28,06,49,10.90
2019,05,28,06,50,10.90
2019,05,28,06,51,10.90
2019,05,28,06,52,10.90
2019,05,28,06,53,10.90
2019,05,28,06,54,10.90
2019,05,28,06,55,10.90
2019,05,28,06,56,10.90
2019,05,28,06,57,10.90
2019,05,28,06,58,10.90
2019,05,28,06,59,10.90
2019,05,28,07,00,10.90
2019,05,28,07,01,10.90
2019,05,28,07,02,11.00
2019,05,28,07,03,11.00
2019,05,28,07,04,11.00
2019,05,28,07,05,11.00
2019,05,28,07,06,11.00
2019,05,28,07,07,11.00
2019,05,28,07,08,11.00
2019,05,28,07,09,11.10
2019,05,28,07,10,11.10
2019,05,28,07,11,11.10
2019,05,28,07,12,11.10
2019,05,28,07,13,11.10
2019,05,28,07,14,11.10
2019,05,28,07,15,11.10
2019,05,28,07,16,11.20
2019,05,28,07,17,11.20
2019,05,28,07,18,11.20
2019,05,28,07,19,11.20
2019,05,28,07,20,11.30
2019,05,28,07,21,11.30
2019,05,28,07,22,11.30
2019,05,28,07,23,11.30
2019,05,28,07,24,11.40
2019,05,28,07,25,11.40
2019,05,28,07,26,11.50
2019,05,28,07,27,11.50
2019,05,28,07,28,11.60
2019,05,28,07,29,11.60
2019,05,28,07,30,11.60
2019,05,28,07,31,11.70
2019,05,28,07,32,11.70
2019,05,28,07,33,11.80
2019,05,28,07,34,11.80
2019,05,28,07,35,11.80
2019,05,28,07,36,11.90
2019,05,28,07,37,11.90
2019,05,28,07,38,11.90
2019,05,28,07,39,11.90
2019,05,28,07,40,11.90
2019,05,28,07,41,11.90
2019,05,28,07,42,12.00
2019,05,28,07,43,12.00
2019,05,28,07,44,12.00
2019,05,28,07,45,12.00
2019,05,28,07,46,12.00
2019,05,28,07,47,12.00
2019,05,28,07,48,12.00
2019,05,28,07,49,11.90
2019,05,28,07,50,11.90
2019,05,28,07,51,11.90
2019,05,28,07,52,11.90
2019,05,28,07,53,11.90
2019,05,28,07,54,11.90
2019,05,28,07,55,11.90
2019,05,28,07,56,11.90
2019,05,28,07,57,11.90
2019,05,28,07,58,11.90
2019,05,28,07,59,11.90
2019,05,28,08,00,12.00
2019,05,28,08,01,12.00
2019,05,28,08,02,12.00
2019,05,28,08,03,12.00
2019,05,28,08,04,12.00
2019,05,28,08,05,12.00
2019,05,28,08,06,12.00
2019,05,28,08,07,12.10
2019,05,28,08,08,12.10
2019,05,28,08,09,12.10
2019,05,28,08,10,12.10
2019,05,28,08,11,12.10
2019,05,28,08,12,12.20
2019,05,28,08,13,12.20
2019,05,28,08,14,12.30
2019,05,28,08,15,12.30
2019,05,28,08,16,12.30
2019,05,28,08,17,12.40
2019,05,28,08,18,12.40
2019,05,28,08,19,12.40
2019,05,28,08,20,12.40
2019,05,28,08,21,12.40
2019,05,28,08,22,12.30
2019,05,28,08,23,12.30
2019,05,28,08,24,12.30
2019,05,28,08,25,12.30
2019,05,28,08,26,12.30
2019,05,28,08,27,12.40
2019,05,28,08,28,12.40
2019,05,28,08,29,12.40
2019,05,28,08,30,12.40
2019,05,28,08,31,12.40
2019,05,28,08,32,12.30
2019,05,28,08,33,12.30
2019,05,28,08,34,12.30
2019,05,28,08,35,12.30
2019,05,28,08,36,12.20
2019,05,28,08,37,12.20
2019,05,28,08,38,12.10
2019,05,28,08,39,12.10
2019,05,28,08,40,12.10
2019,05,28,08,41,12.10
2019,05,28,08,42,12.10
2019,05,28,08,43,12.10
2019,05,28,08,44,12.10
2019,05,28,08,45,12.10
2019,05,28,08,46,12.20
2019,05,28,08,47,12.20
2019,05,28,08,48,12.30
2019,05,28,08,49,12.30
2019,05,28,08,50,12.30
2019,05,28,08,51,12.40
2019,05,28,08,52,12.40
2019,05,28,08,53,12.40
2019,05,28,08,54,12.40
2019,05,28,08,55,12.40
2019,05,28,08,56,12.40
2019,05,28,08,57,12.50
2019,05,28,08,58,12.50
2019,05,28,08,59,12.50
2019,05,28,09,00,12.60
2019,05,28,09,01,12.60
2019,05,28,09,02,12.60
2019,05,28,09,03,12.70
2019,05,28,09,04,12.70
2019,05,28,09,05,12.70
2019,05,28,09,06,12.70
2019,05,28,09,07,12.70
2019,05,28,09,08,12.70
2019,05,28,09,09,12.60
2019,05,28,09,10,12.60
2019,05,28,09,11,12.60
2019,05,28,09,12,12.60
2019,05,28,09,13,12.60
2019,05,28,09,14,12.60
2019,05,28,09,15,12.60
2019,05,28,09,16,12.60
2019,05,28,09,17,12.60
2019,05,28,09,18,12.60
2019,05,28,09,19,12.60
2019,05,28,09,20,12.60
2019,05,28,09,21,12.60
2019,05,28,09,22,12.60
2019,05,28,09,23,12.60
2019,05,28,09,24,12.60
2019,05,28,09,25,12.60
2019,05,28,09,26,12.60
2019,05,28,09,27,12.70
2019,05,28,09,28,12.70
2019,05,28,09,29,12.70
2019,05,28,09,30,12.70
2019,05,28,09,31,12.70
2019,05,28,09,32,12.80
2019,05,28,09,33,12.80
2019,05,28,09,34,12.80
2019,05,28,09,35,12.80
2019,05,28,09,36,12.80
2019,05,28,09,37,12.80
2019,05,28,09,38,12.80
2019,05,28,09,39,12.90
2019,05,28,09,40,12.90
2019,05,28,09,41,13.00
2019,05,28,09,42,13.00
2019,05,28,09,43,13.10
2019,05,28,09,44,13.10
2019,05,28,09,45,13.10
2019,05,28,09,46,13.10
2019,05,28,09,47,13.20
2019,05,28,09,48,13.20
2019,05,28,09,49,13.10
2019,05,28,09,50,13.10
2019,05,28,09,51,13.10
2019,05,28,09,52,13.10
2019,05,28,09,53,13.10
2019,05,28,09,54,13.10
2019,05,28,09,55,13.10
2019,05,28,09,56,13.10
2019,05,28,09,57,13.10
2019,05,28,09,58,13.10
2019,05,28,09,59,13.10
2019,05,28,10,00,13.20
2019,05,28,10,01,13.20
2019,05,28,10,02,13.20
2019,05,28,10,03,13.20
2019,05,28,10,04,13.20
2019,05,28,10,05,13.20
2019,05,28,10,06,13.10
2019,05,28,10,07,13.10
2019,05,28,10,08,13.10
2019,05,28,10,09,13.00
2019,05,28,10,10,13.00
2019,05,28,10,11,13.00
2019,05,28,10,12,13.00
2019,05,28,10,13,13.00
2019,05,28,10,14,12.90
2019,05,28,10,15,12.90
2019,05,28,10,16,12.90
2019,05,28,10,17,12.80
2019,05,28,10,18,12.80
2019,05,28,10,19,12.70
2019,05,28,10,20,12.70
2019,05,28,10,21,12.70
2019,05,28,10,22,12.70
2019,05,28,10,23,12.70
2019,05,28,10,24,12.70
2019,05,28,10,25,12.70
2019,05,28,10,26,12.80
2019,05,28,10,27,12.80
2019,05,28,10,28,12.80
2019,05,28,10,29,12.80
2019,05,28,10,30,12.80
2019,05,28,10,31,12.80
2019,05,28,10,32,12.70
2019,05,28,10,33,12.70
2019,05,28,10,34,12.70
2019,05,28,10,35,12.70
2019,05,28,10,36,12.80
2019,05,28,10,37,12.90
2019,05,28,10,38,13.00
2019,05,28,10,39,13.00
2019,05,28,10,40,13.10
2019,05,28,10,41,13.20
2019,05,28,10,42,13.30
2019,05,28,10,43,13.30
2019,05,28,10,44,13.40
2019,05,28,10,45,13.40
2019,05,28,10,46,13.50
2019,05,28,10,47,13.60
2019,05,28,10,48,13.60
2019,05,28,10,49,13.70
2019,05,28,10,50,13.70
2019,05,28,10,51,13.80
2019,05,28,10,52,13.80
2019,05,28,10,53,13.90
2019,05,28,10,54,14.00
2019,05,28,10,55,14.00
2019,05,28,10,56,14.10
2019,05,28,10,57,14.20
2019,05,28,10,58,14.20
2019,05,28,10,59,14.30
2019,05,28,11,00,14.30
2019,05,28,11,01,14.40
2019,05,28,11,02,14.40
2019,05,28,11,03,14.50
2019,05,28,11,04,14.50
2019,05,28,11,05,14.60
2019,05,28,11,06,14.50
2019,05,28,11,07,14.40
2019,05,28,11,08,14.50
2019,05,28,11,09,14.50
2019,05,28,11,10,14.50
2019,05,28,11,11,14.50
2019,05,28,11,12,14.50
2019,05,28,11,13,14.50
2019,05,28,11,14,14.40
2019,05,28,11,15,14.30
2019,05,28,11,16,14.30
2019,05,28,11,17,14.30
2019,05,28,11,18,14.30
2019,05,28,11,19,14.30
2019,05,28,11,20,14.40
2019,05,28,11,21,14.50
2019,05,28,11,22,14.60
2019,05,28,11,23,14.70
2019,05,28,11,24,14.80
2019,05,28,11,25,14.80
2019,05,28,11,26,14.80
2019,05,28,11,27,14.90
2019,05,28,11,28,14.90
2019,05,28,11,29,14.90
2019,05,28,11,30,14.90
2019,05,28,11,31,15.00
2019,05,28,11,32,15.10
2019,05,28,11,33,15.10
2019,05,28,11,34,15.10
2019,05,28,11,35,15.10
2019,05,28,11,36,15.00
2019,05,28,11,37,15.00
2019,05,28,11,38,14.90
2019,05,28,11,39,14.90
2019,05,28,11,40,14.90
2019,05,28,11,41,14.90
2019,05,28,11,42,14.90
2019,05,28,11,43,14.90
2019,05,28,11,44,14.90
2019,05,28,11,45,15.00
2019,05,28,11,46,15.00
2019,05,28,11,47,15.00
2019,05,28,11,48,14.90
2019,05,28,11,49,14.90
2019,05,28,11,50,14.90
2019,05,28,11,51,14.90
2019,05,28,11,52,14.90
2019,05,28,11,53,14.90
2019,05,28,11,54,15.00
2019,05,28,11,55,15.00
2019,05,28,11,56,15.00
2019,05,28,11,57,14.90
2019,05,28,11,58,14.90
2019,05,28,11,59,14.90
2019,05,28,12,00,15.00
2019,05,28,12,01,15.10
2019,05,28,12,02,15.10
2019,05,28,12,03,15.20
2019,05,28,12,04,15.20
2019,05,28,12,05,15.30
2019,05,28,12,06,15.30
2019,05,28,12,07,15.30
2019,05,28,12,08,15.30
2019,05,28,12,09,15.30
2019,05,28,12,10,15.20
2019,05,28,12,11,15.20
2019,05,28,12,12,15.20
2019,05,28,12,13,15.30
2019,05,28,12,14,15.30
2019,05,28,12,15,15.40
2019,05,28,12,16,15.50
2019,05,28,12,17,15.50
2019,05,28,12,18,15.60
2019,05,28,12,19,15.70
2019,05,28,12,20,15.80
2019,05,28,12,21,15.80
2019,05,28,12,22,15.90
2019,05,28,12,23,16.00
2019,05,28,12,24,16.00
2019,05,28,12,25,16.00
2019,05,28,12,26,16.00
2019,05,28,12,27,16.00
2019,05,28,12,28,16.00
2019,05,28,12,29,16.00
2019,05,28,12,30,15.90
2019,05,28,12,31,15.90
2019,05,28,12,32,15.80
2019,05,28,12,33,15.90
2019,05,28,12,34,16.00
2019,05,28,12,35,16.10
2019,05,28,12,36,16.20
2019,05,28,12,37,16.20
2019,05,28,12,38,16.20
2019,05,28,12,39,16.20
2019,05,28,12,40,16.30
2019,05,28,12,41,16.30
2019,05,28,12,42,16.30
2019,05,28,12,43,16.20
2019,05,28,12,44,16.20
2019,05,28,12,45,16.20
2019,05,28,12,46,16.20
2019,05,28,12,47,16.20
2019,05,28,12,48,16.30
2019,05,28,12,49,16.30
2019,05,28,12,50,16.30
2019,05,28,12,51,16.30
2019,05,28,12,52,16.40
2019,05,28,12,53,16.40
2019,05,28,12,54,16.40
2019,05,28,12,55,16.40
2019,05,28,12,56,16.40
2019,05,28,12,57,16.50
2019,05,28,12,58,16.50
2019,05,28,12,59,16.60
2019,05,28,13,00,16.60
2019,05,28,13,01,16.70
2019,05,28,13,02,16.70
2019,05,28,13,03,16.70
2019,05,28,13,04,16.70
2019,05,28,13,05,16.70
2019,05,28,13,06,16.60
2019,05,28,13,07,16.50
2019,05,28,13,08,16.50
2019,05,28,13,09,16.50
2019,05,28,13,10,16.50
2019,05,28,13,11,16.60
2019,05,28,13,12,16.50
2019,05,28,13,13,16.50
2019,05,28,13,14,16.50
2019,05,28,13,15,16.50
2019,05,28,13,16,16.50
2019,05,28,13,17,16.40
2019,05,28,13,18,16.50
2019,05,28,13,19,16.50
2019,05,28,13,20,16.40
2019,05,28,13,21,16.40
2019,05,28,13,22,16.50
2019,05,28,13,23,16.50
2019,05,28,13,24,16.60
2019,05,28,13,25,16.70
2019,05,28,13,26,16.80
2019,05,28,13,27,16.80
2019,05,28,13,28,16.80
2019,05,28,13,29,16.80
2019,05,28,13,30,16.90
2019,05,28,13,31,17.00
2019,05,28,13,32,17.10
2019,05,28,13,33,17.10
2019,05,28,13,34,17.10
2019,05,28,13,35,17.00
2019,05,28,13,36,17.00
2019,05,28,13,37,17.00
2019,05,28,13,38,16.90
2019,05,28,13,39,16.90
2019,05,28,13,40,17.00
2019,05,28,13,41,17.00
2019,05,28,13,42,16.90
2019,05,28,13,43,17.00
2019,05,28,13,44,17.00
2019,05,28,13,45,17.00
2019,05,28,13,46,17.00
2019,05,28,13,47,17.10
2019,05,28,13,48,17.20
2019,05,28,13,49,17.20
2019,05,28,13,50,17.20
2019,05,28,13,51,17.20
2019,05,28,13,52,17.20
2019,05,28,13,53,17.10
2019,05,28,13,54,17.10
2019,05,28,13,55,17.00
2019,05,28,13,56,17.00
2019,05,28,13,57,16.90
2019,05,28,13,58,16.90
2019,05,28,13,59,16.90
2019,05,28,14,00,17.00
2019,05,28,14,01,17.00
2019,05,28,14,02,17.10
2019,05,28,14,03,17.10
2019,05,28,14,04,17.10
2019,05,28,14,05,17.20
2019,05,28,14,06,17.20
2019,05,28,14,07,17.30
2019,05,28,14,08,17.30
2019,05,28,14,09,17.30
2019,05,28,14,10,17.40
2019,05,28,14,11,17.40
2019,05,28,14,12,17.40
2019,05,28,14,13,17.40
2019,05,28,14,14,17.30
2019,05,28,14,15,17.30
2019,05,28,14,16,17.30
2019,05,28,14,17,17.30
2019,05,28,14,18,17.30
2019,05,28,14,19,17.30
2019,05,28,14,20,17.30
2019,05,28,14,21,17.30
2019,05,28,14,22,17.30
2019,05,28,14,23,17.30
2019,05,28,14,24,17.40
2019,05,28,14,25,17.40
2019,05,28,14,26,17.40
2019,05,28,14,27,17.40
2019,05,28,14,28,17.50
2019,05,28,14,29,17.50
2019,05,28,14,30,17.50
2019,05,28,14,31,17.60
2019,05,28,14,32,17.60
2019,05,28,14,33,17.60
2019,05,28,14,34,17.50
2019,05,28,14,35,17.50
2019,05,28,14,36,17.50
2019,05,28,14,37,17.50
2019,05,28,14,38,17.50
2019,05,28,14,39,17.50
2019,05,28,14,40,17.50
2019,05,28,14,41,17.50
2019,05,28,14,42,17.50
2019,05,28,14,43,17.40
2019,05,28,14,44,17.40
2019,05,28,14,45,17.40
2019,05,28,14,46,17.40
2019,05,28,14,47,17.50
2019,05,28,14,48,17.50
2019,05,28,14,49,17.60
2019,05,28,14,50,17.60
2019,05,28,14,51,17.70
2019,05,28,14,52,17.80
2019,05,28,14,53,17.90
2019,05,28,14,54,18.00
2019,05,28,14,55,18.00
2019,05,28,14,56,18.00
2019,05,28,14,57,18.10
2019,05,28,14,58,18.10
2019,05,28,14,59,18.10
2019,05,28,15,00,18.10
2019,05,28,15,01,18.10
2019,05,28,15,02,18.10
2019,05,28,15,03,18.20
2019,05,28,15,04,18.10
2019,05,28,15,05,18.10
2019,05,28,15,06,18.20
2019,05,28,15,07,18.20
2019,05,28,15,08,18.20
2019,05,28,15,09,18.10
2019,05,28,15,10,18.10
2019,05,28,15,11,18.10
2019,05,28,15,12,18.10
2019,05,28,15,13,18.10
2019,05,28,15,14,18.10
2019,05,28,15,15,18.20
2019,05,28,15,16,18.10
2019,05,28,15,17,18.20
2019,05,28,15,18,18.20
2019,05,28,15,19,18.30
2019,05,28,15,20,18.30
2019,05,28,15,21,18.30
2019,05,28,15,22,18.30
2019,05,28,15,23,18.30
2019,05,28,15,24,18.30
2019,05,28,15,25,18.30
2019,05,28,15,26,18.30
2019,05,28,15,27,18.30
2019,05,28,15,28,18.30
2019,05,28,15,29,18.40
2019,05,28,15,30,18.40
2019,05,28,15,31,18.50
2019,05,28,15,32,18.60
2019,05,28,15,33,18.60
2019,05,28,15,34,18.70
2019,05,28,15,35,18.80
2019,05,28,15,36,18.80
2019,05,28,15,37,18.80
2019,05,28,15,38,18.70
2019,05,28,15,39,18.70
2019,05,28,15,40,18.60
2019,05,28,15,41,18.60
2019,05,28,15,42,18.60
2019,05,28,15,43,18.60
2019,05,28,15,44,18.70
2019,05,28,15,45,18.70
2019,05,28,15,46,18.80
2019,05,28,15,47,18.80
2019,05,28,15,48,18.80
2019,05,28,15,49,18.80
2019,05,28,15,50,18.80
2019,05,28,15,51,18.80
2019,05,28,15,52,18.80
2019,05,28,15,53,18.80
2019,05,28,15,54,18.80
2019,05,28,15,55,18.80
2019,05,28,15,56,18.80
2019,05,28,15,57,18.80
2019,05,28,15,58,18.80
2019,05,28,15,59,18.80
2019,05,28,16,00,18.70
2019,05,28,16,01,18.60
2019,05,28,16,02,18.60
2019,05,28,16,03,18.60
2019,05,28,16,04,18.50
2019,05,28,16,05,18.50
2019,05,28,16,06,18.60
2019,05,28,16,07,18.60
2019,05,28,16,08,18.60
2019,05,28,16,09,18.70
2019,05,28,16,10,18.60
2019,05,28,16,11,18.60
2019,05,28,16,12,18.50
2019,05,28,16,13,18.50
2019,05,28,16,14,18.50
2019,05,28,16,15,18.60
2019,05,28,16,16,18.60
2019,05,28,16,17,18.60
2019,05,28,16,18,18.60
2019,05,28,16,19,18.60
2019,05,28,16,20,18.60
2019,05,28,16,21,18.60
2019,05,28,16,22,18.50
2019,05,28,16,23,18.50
2019,05,28,16,24,18.50
2019,05,28,16,25,18.50
2019,05,28,16,26,18.50
2019,05,28,16,27,18.50
2019,05,28,16,28,18.40
2019,05,28,16,29,18.40
2019,05,28,16,30,18.30
2019,05,28,16,31,18.20
2019,05,28,16,32,18.10
2019,05,28,16,33,18.00
2019,05,28,16,34,17.90
2019,05,28,16,35,17.90
2019,05,28,16,36,17.90
2019,05,28,16,37,18.00
2019,05,28,16,38,18.10
2019,05,28,16,39,18.20
2019,05,28,16,40,18.30
2019,05,28,16,41,18.40
2019,05,28,16,42,18.50
2019,05,28,16,43,18.50
2019,05,28,16,44,18.60
2019,05,28,16,45,18.60
2019,05,28,16,46,18.70
2019,05,28,16,47,18.80
2019,05,28,16,48,18.80
2019,05,28,16,49,18.80
2019,05,28,16,50,18.90
2019,05,28,16,51,18.90
2019,05,28,16,52,18.90
2019,05,28,16,53,18.90
2019,05,28,16,54,18.90
2019,05,28,16,55,18.90
2019,05,28,16,56,18.90
2019,05,28,16,57,18.90
2019,05,28,16,58,19.00
2019,05,28,16,59,19.00
2019,05,28,17,00,18.90
2019,05,28,17,01,18.90
2019,05,28,17,02,18.90
2019,05,28,17,03,18.80
2019,05,28,17,04,18.80
2019,05,28,17,05,18.80
2019,05,28,17,06,18.80
2019,05,28,17,07,18.80
2019,05,28,17,08,18.80
2019,05,28,17,09,18.80
2019,05,28,17,10,18.70
2019,05,28,17,11,18.70
2019,05,28,17,12,18.70
2019,05,28,17,13,18.70
2019,05,28,17,14,18.80
2019,05,28,17,15,18.80
2019,05,28,17,16,18.80
2019,05,28,17,17,18.80
2019,05,28,17,18,18.90
2019,05,28,17,19,18.90